QPF
0.02 0.01 0.01 0.01 0.00 0.00 0.00 0.00 0.00 0.01 0.02 0.03 0.06 0.07 0.08 0.08 0.07 0.04 0.03 0.05 0.07 0.04 0.03 0.02 0.02 0.02 0.02 0.03 0.04 0.06 0.05 0.03 0.03 0.04 0.04 0.04 0.04 0.03
0.02 0.02 0.02 0.01 0.00 0.00 0.00 0.00 0.00 0.00 0.01 0.01 0.03 0.04 0.05 0.06 0.08 0.05 0.04 0.06 0.06 0.05 0.04 0.02 0.02 0.01 0.01 0.02 0.05 0.07 0.06 0.04 0.02 0.02 0.02 0.02 0.03 0.04
0.02 0.02 0.01 0.01 0.01 0.01 0.01 0.01 0.00 0.01 0.01 0.01 0.02 0.03 0.04 0.03 0.03 0.03 0.04 0.05 0.05 0.06 0.05 0.03 0.02 0.02 0.01 0.03 0.08 0.08 0.06 0.04 0.02 0.02 0.02 0.02 0.03 0.03
0.03 0.02 0.02 0.01 0.01 0.01 0.01 0.01 0.02 0.02 0.02 0.02 0.02 0.04 0.03 0.02 0.02 0.02 0.03 0.03 0.05 0.06 0.05 0.04 0.03 0.01 0.01 0.05 0.12 0.11 0.09 0.05 0.03 0.02 0.02 0.02 0.03 0.04
0.03 0.03 0.02 0.02 0.01 0.01 0.01 0.02 0.03 0.03 0.03 0.03 0.02 0.02 0.03 0.02 0.02 0.02 0.02 0.02 0.04 0.06 0.05 0.04 0.03 0.01 0.01 0.08 0.14 0.13 0.11 0.08 0.06 0.04 0.03 0.02 0.02 0.03
0.03 0.04 0.03 0.02 0.02 0.02 0.01 0.02 0.04 0.03 0.03 0.03 0.02 0.02 0.02 0.01 0.01 0.01 0.02 0.02 0.04 0.05 0.05 0.04 0.03 0.02 0.02 0.06 0.12 0.14 0.16 0.12 0.09 0.06 0.04 0.02 0.03 0.03
0.02 0.03 0.04 0.03 0.03 0.03 0.02 0.03 0.04 0.03 0.03 0.02 0.02 0.02 0.02 0.01 0.01 0.01 0.01 0.02 0.03 0.03 0.03 0.03 0.02 0.02 0.02 0.04 0.07 0.10 0.12 0.11 0.08 0.05 0.04 0.03 0.03 0.03
0.04 0.03 0.04 0.04 0.03 0.03 0.03 0.03 0.03 0.03 0.03 0.03 0.02 0.02 0.02 0.01 0.01 0.01 0.01 0.01 0.02 0.02 0.02 0.02 0.02 0.02 0.01 0.02 0.04 0.04 0.05 0.04 0.04 0.03 0.03 0.01 0.02 0.02
0.06 0.05 0.04 0.04 0.04 0.03 0.03 0.03 0.03 0.03 0.04 0.03 0.02 0.02 0.02 0.02 0.01 0.01 0.01 0.01 0.01 0.01 0.01 0.01 0.01 0.02 0.01 0.01 0.03 0.03 0.02 0.02 0.02 0.02 0.01 0.01 0.01 0.01
0.04 0.05 0.06 0.05 0.04 0.04 0.03 0.03 0.03 0.03 0.03 0.02 0.01 0.01 0.02 0.02 0.03 0.02 0.02 0.02 0.02 0.01 0.01 0.01 0.01 0.01 0.01 0.00 0.01 0.02 0.03 0.03 0.02 0.01 0.00 0.00 0.00 0.01
0.03 0.03 0.03 0.03 0.04 0.04 0.03 0.03 0.03 0.02 0.02 0.03 0.02 0.02 0.02 0.03 0.05 0.05 0.04 0.03 0.02 0.02 0.01 0.01 0.01 0.01 0.01 0.00 0.01 0.02 0.03 0.02 0.01 0.01 0.00 0.00 0.00 0.00
0.03 0.03 0.03 0.03 0.03 0.03 0.02 0.02 0.02 0.02 0.03 0.03 0.04 0.03 0.02 0.03 0.04 0.05 0.05 0.05 0.03 0.02 0.01 0.01 0.02 0.03 0.02 0.01 0.01 0.02 0.02 0.01 0.01 0.01 0.00 0.00 0.00 0.00
0.02 0.03 0.03 0.03 0.03 0.02 0.02 0.02 0.02 0.02 0.02 0.03 0.03 0.03 0.02 0.03 0.05 0.06 0.06 0.05 0.03 0.02 0.01 0.02 0.02 0.03 0.03 0.02 0.02 0.01 0.01 0.01 0.00 0.00 0.00 0.00 0.00 0.00
0.02 0.02 0.03 0.04 0.03 0.02 0.02 0.03 0.02 0.02 0.02 0.03 0.02 0.02 0.02 0.02 0.04 0.05 0.06 0.04 0.03 0.03 0.02 0.02 0.02 0.03 0.03 0.03 0.02 0.01 0.01 0.01 0.01 0.01 0.01 0.01 0.00 0.00
0.02 0.02 0.02 0.04 0.03 0.02 0.01 0.01 0.01 0.02 0.02 0.03 0.03 0.03 0.02 0.02 0.03 0.05 0.07 0.08 0.06 0.06 0.05 0.05 0.05 0.05 0.05 0.04 0.03 0.02 0.02 0.02 0.02 0.01 0.01 0.01 0.01 0.01
0.02 0.02 0.02 0.02 0.02 0.01 0.01 0.01 0.01 0.03 0.03 0.04 0.05 0.04 0.04 0.04 0.05 0.06 0.08 0.09 0.10 0.10 0.09 0.09 0.09 0.09 0.07 0.06 0.05 0.04 0.03 0.02 0.02 0.01 0.01 0.01 0.01 0.01
0.03 0.02 0.02 0.01 0.01 0.01 0.01 0.00 0.01 0.01 0.02 0.03 0.03 0.04 0.05 0.05 0.05 0.06 0.06 0.07 0.08 0.08 0.09 0.10 0.10 0.09 0.08 0.08 0.07 0.05 0.03 0.03 0.02 0.02 0.01 0.01 0.01 0.01
0.02 0.02 0.02 0.01 0.01 0.00 0.00 0.00 0.01 0.01 0.02 0.02 0.02 0.02 0.02 0.03 0.03 0.04 0.04 0.05 0.06 0.06 0.06 0.08 0.09 0.09 0.08 0.08 0.07 0.06 0.06 0.05 0.05 0.03 0.02 0.02 0.01 0.01
0.01 0.01 0.01 0.02 0.02 0.01 0.00 0.01 0.01 0.01 0.02 0.02 0.01 0.01 0.01 0.01 0.01 0.02 0.02 0.03 0.03 0.04 0.04 0.05 0.05 0.05 0.05 0.06 0.06 0.06 0.05 0.05 0.04 0.03 0.03 0.02 0.02 0.01
0.02 0.02 0.02 0.02 0.03 0.02 0.01 0.01 0.01 0.01 0.02 0.02 0.02 0.02 0.01 0.02 0.02 0.02 0.02 0.04 0.05 0.06 0.06 0.05 0.04 0.04 0.04 0.04 0.03 0.03 0.02 0.02 0.02 0.02 0.02 0.02 0.01 0.01
0.02 0.01 0.02 0.02 0.02 0.02 0.01 0.01 0.01 0.01 0.01 0.02 0.02 0.02 0.03 0.02 0.02 0.02 0.02 0.04 0.05 0.07 0.08 0.08 0.07 0.06 0.04 0.03 0.02 0.01 0.01 0.01 0.01 0.01 0.01 0.01 0.01 0.01
0.01 0.01 0.01 0.01 0.01 0.01 0.01 0.01 0.01 0.01 0.01 0.01 0.01 0.01 0.02 0.03 0.02 0.02 0.02 0.02 0.03 0.03 0.04 0.04 0.05 0.06 0.07 0.06 0.04 0.02 0.01 0.01 0.01 0.01 0.01 0.01 0.01 0.01
0.01 0.01 0.01 0.02 0.01 0.01 0.01 0.01 0.01 0.01 0.01 0.01 0.01 0.01 0.02 0.02 0.02 0.02 0.02 0.03 0.03 0.03 0.03 0.04 0.05 0.05 0.05 0.06 0.05 0.04 0.02 0.01 0.01 0.01 0.01 0.01 0.01 0.01
MSLP
1012.41 1012.52 1012.66 1012.79 1012.88 1012.93 1012.92 1012.85 1012.73 1012.57 1012.41 1012.26 1012.14 1012.08 1012.08 1012.15 1012.30 1012.52 1012.81 1013.17 1013.59 1014.06 1014.58 1015.12 1015.68 1016.25 1016.82 1017.37 1017.90 1018.40 1018.88 1019.32 1019.72 1020.09 1020.41 1020.68 1020.91 1021.09
1011.79 1011.84 1011.92 1012.00 1012.07 1012.11 1012.10 1012.06 1011.98 1011.88 1011.79 1011.72 1011.68 1011.69 1011.76 1011.90 1012.10 1012.36 1012.68 1013.06 1013.48 1013.96 1014.46 1014.99 1015.54 1016.10 1016.65 1017.20 1017.73 1018.24 1018.73 1019.19 1019.61 1020.00 1020.34 1020.64 1020.89 1021.09
1011.15 1011.12 1011.14 1011.17 1011.21 1011.24 1011.25 1011.24 1011.22 1011.19 1011.19 1011.21 1011.27 1011.38 1011.54 1011.76 1012.02 1012.34 1012.70 1013.11 1013.54 1014.01 1014.50 1015.00 1015.52 1016.05 1016.57 1017.10 1017.61 1018.12 1018.60 1019.07 1019.51 1019.91 1020.27 1020.58 1020.84 1021.06
1010.53 1010.43 1010.38 1010.37 1010.38 1010.40 1010.43 1010.46 1010.50 1010.56 1010.65 1010.78 1010.94 1011.16 1011.42 1011.73 1012.08 1012.46 1012.87 1013.30 1013.75 1014.21 1014.68 1015.15 1015.63 1016.11 1016.60 1017.08 1017.56 1018.04 1018.52 1018.97 1019.41 1019.82 1020.18 1020.50 1020.78 1021.01
1009.97 1009.81 1009.70 1009.65 1009.64 1009.66 1009.71 1009.79 1009.90 1010.04 1010.22 1010.44 1010.72 1011.04 1011.40 1011.80 1012.23 1012.68 1013.14 1013.61 1014.07 1014.53 1014.98 1015.42 1015.85 1016.28 1016.71 1017.14 1017.57 1018.01 1018.46 1018.89 1019.32 1019.72 1020.09 1020.41 1020.69 1020.93
1009.52 1009.30 1009.15 1009.06 1009.03 1009.06 1009.14 1009.26 1009.43 1009.64 1009.91 1010.22 1010.58 1010.99 1011.44 1011.92 1012.43 1012.95 1013.46 1013.97 1014.45 1014.92 1015.35 1015.76 1016.14 1016.51 1016.88 1017.24 1017.62 1018.01 1018.42 1018.83 1019.23 1019.62 1019.98 1020.31 1020.59 1020.82
1009.20 1008.94 1008.75 1008.64 1008.61 1008.64 1008.75 1008.90 1009.12 1009.39 1009.71 1010.09 1010.51 1010.99 1011.50 1012.05 1012.62 1013.19 1013.76 1014.30 1014.81 1015.28 1015.71 1016.09 1016.43 1016.75 1017.06 1017.37 1017.68 1018.02 1018.38 1018.76 1019.14 1019.51 1019.87 1020.19 1020.46 1020.68
1009.04 1008.75 1008.54 1008.42 1008.38 1008.43 1008.55 1008.73 1008.98 1009.28 1009.63 1010.04 1010.50 1011.01 1011.56 1012.15 1012.76 1013.37 1013.97 1014.55 1015.08 1015.56 1015.98 1016.35 1016.66 1016.94 1017.20 1017.45 1017.72 1018.01 1018.33 1018.67 1019.03 1019.39 1019.73 1020.04 1020.30 1020.52
1009.03 1008.73 1008.52 1008.40 1008.36 1008.42 1008.55 1008.74 1009.00 1009.31 1009.67 1010.08 1010.54 1011.05 1011.61 1012.20 1012.81 1013.44 1014.06 1014.66 1015.21 1015.70 1016.12 1016.48 1016.78 1017.03 1017.26 1017.47 1017.70 1017.95 1018.24 1018.56 1018.89 1019.24 1019.57 1019.87 1020.12 1020.31
1009.17 1008.88 1008.68 1008.57 1008.54 1008.61 1008.74 1008.94 1009.19 1009.49 1009.83 1010.22 1010.65 1011.12 1011.64 1012.20 1012.80 1013.41 1014.03 1014.62 1015.17 1015.67 1016.10 1016.46 1016.75 1016.99 1017.20 1017.40 1017.60 1017.83 1018.10 1018.40 1018.72 1019.05 1019.37 1019.65 1019.89 1020.06
1009.43 1009.18 1009.00 1008.91 1008.90 1008.98 1009.12 1009.31 1009.55 1009.82 1010.12 1010.46 1010.83 1011.25 1011.71 1012.21 1012.76 1013.33 1013.91 1014.48 1015.02 1015.50 1015.93 1016.29 1016.58 1016.82 1017.02 1017.22 1017.41 1017.64 1017.89 1018.18 1018.49 1018.81 1019.12 1019.38 1019.59 1019.74
1009.80 1009.59 1009.45 1009.38 1009.40 1009.49 1009.63 1009.82 1010.03 1010.27 1010.53 1010.81 1011.12 1011.46 1011.84 1012.27 1012.74 1013.24 1013.76 1014.28 1014.79 1015.25 1015.66 1016.01 1016.30 1016.55 1016.75 1016.95 1017.15 1017.37 1017.62 1017.90 1018.20 1018.51 1018.79 1019.04 1019.22 1019.34
1010.23 1010.07 1009.97 1009.94 1009.98 1010.08 1010.23 1010.41 1010.61 1010.82 1011.04 1011.26 1011.50 1011.76 1012.06 1012.40 1012.78 1013.20 1013.65 1014.11 1014.56 1014.98 1015.36 1015.69 1015.97 1016.21 1016.42 1016.61 1016.82 1017.04 1017.28 1017.55 1017.84 1018.12 1018.38 1018.60 1018.76 1018.84
1010.67 1010.57 1010.52 1010.52 1010.59 1010.70 1010.85 1011.03 1011.21 1011.40 1011.58 1011.76 1011.94 1012.14 1012.36 1012.62 1012.91 1013.25 1013.61 1013.99 1014.37 1014.74 1015.07 1015.37 1015.63 1015.86 1016.06 1016.25 1016.44 1016.65 1016.88 1017.13 1017.39 1017.65 1017.88 1018.06 1018.19 1018.25
1011.08 1011.03 1011.01 1011.05 1011.13 1011.25 1011.41 1011.58 1011.75 1011.92 1012.08 1012.23 1012.38 1012.53 1012.69 1012.88 1013.11 1013.36 1013.64 1013.95 1014.25 1014.56 1014.84 1015.09 1015.32 1015.52 1015.70 1015.87 1016.04 1016.23 1016.44 1016.66 1016.88 1017.09 1017.29 1017.44 1017.53 1017.57
1011.40 1011.39 1011.40 1011.45 1011.53 1011.65 1011.80 1011.96 1012.13 1012.29 1012.45 1012.59 1012.72 1012.84 1012.98 1013.12 1013.30 1013.49 1013.71 1013.95 1014.19 1014.43 1014.66 1014.87 1015.05 1015.21 1015.36 1015.50 1015.64 1015.79 1015.96 1016.13 1016.31 1016.48 1016.63 1016.74 1016.80 1016.82
1011.60 1011.60 1011.62 1011.66 1011.73 1011.84 1011.96 1012.12 1012.28 1012.44 1012.59 1012.73 1012.87 1013.00 1013.12 1013.26 1013.41 1013.57 1013.75 1013.94 1014.14 1014.33 1014.51 1014.67 1014.81 1014.94 1015.05 1015.15 1015.24 1015.35 1015.47 1015.59 1015.71 1015.83 1015.93 1016.00 1016.05 1016.05
1011.63 1011.63 1011.63 1011.65 1011.69 1011.76 1011.86 1011.99 1012.14 1012.30 1012.46 1012.61 1012.76 1012.91 1013.05 1013.20 1013.35 1013.51 1013.68 1013.85 1014.02 1014.19 1014.34 1014.47 1014.58 1014.67 1014.74 1014.80 1014.86 1014.92 1014.98 1015.05 1015.12 1015.18 1015.24 1015.28 1015.30 1015.30
1011.50 1011.47 1011.44 1011.42 1011.42 1011.45 1011.52 1011.62 1011.75 1011.90 1012.06 1012.23 1012.40 1012.57 1012.74 1012.91 1013.08 1013.26 1013.44 1013.62 1013.79 1013.95 1014.10 1014.22 1014.32 1014.39 1014.43 1014.46 1014.48 1014.49 1014.51 1014.52 1014.55 1014.56 1014.58 1014.60 1014.60 1014.60
1011.22 1011.16 1011.10 1011.03 1010.99 1010.98 1011.00 1011.07 1011.18 1011.31 1011.47 1011.65 1011.83 1012.02 1012.21 1012.41 1012.61 1012.81 1013.01 1013.21 1013.41 1013.59 1013.75 1013.88 1013.99 1014.06 1014.09 1014.11 1014.10 1014.08 1014.06 1014.03 1014.01 1014.00 1013.98 1013.98 1013.97 1013.97
1010.85 1010.77 1010.67 1010.57 1010.49 1010.44 1010.43 1010.47 1010.54 1010.66 1010.80 1010.96 1011.14 1011.33 1011.53 1011.74 1011.96 1012.18 1012.41 1012.65 1012.88 1013.09 1013.28 1013.44 1013.57 1013.65 1013.70 1013.71 1013.70 1013.66 1013.61 1013.56 1013.51 1013.47 1013.44 1013.42 1013.41 1013.41
1010.46 1010.36 1010.24 1010.13 1010.03 1009.96 1009.93 1009.93 1009.98 1010.06 1010.16 1010.29 1010.44 1010.61 1010.79 1010.99 1011.21 1011.44 1011.69 1011.95 1012.21 1012.46 1012.69 1012.89 1013.05 1013.17 1013.24 1013.26 1013.25 1013.21 1013.15 1013.08 1013.02 1012.97 1012.93 1012.90 1012.89 1012.90
1010.13 1010.04 1009.93 1009.82 1009.72 1009.65 1009.60 1009.59 1009.60 1009.63 1009.69 1009.77 1009.86 1009.97 1010.11 1010.27 1010.46 1010.68 1010.92 1011.19 1011.47 1011.75 1012.01 1012.25 1012.44 1012.59 1012.69 1012.74 1012.74 1012.70 1012.65 1012.58 1012.51 1012.45 1012.41 1012.39 1012.40 1012.41
Thickness
5678 5677 5675 5674 5673 5672 5671 5669 5666 5663 5663 5665 5667 5670 5670 5670 5670 5669 5669 5668 5667 5665 5663 5661 5659 5657 5655 5653 5651 5650 5650 5649 5648 5647 5646 5645 5644 5644
5676 5674 5672 5672 5671 5670 5669 5667 5666 5664 5661 5663 5664 5666 5666 5667 5666 5666 5666 5665 5664 5662 5660 5658 5656 5654 5652 5650 5649 5648 5647 5646 5645 5643 5642 5641 5640 5640
5673 5672 5670 5669 5668 5667 5666 5665 5663 5662 5660 5660 5661 5662 5662 5663 5663 5662 5662 5661 5660 5659 5657 5655 5654 5652 5650 5648 5647 5646 5645 5644 5642 5641 5640 5638 5637 5636
5671 5669 5668 5667 5665 5665 5664 5662 5661 5660 5658 5657 5657 5658 5658 5659 5659 5659 5658 5658 5657 5656 5655 5653 5651 5649 5648 5646 5645 5644 5642 5641 5639 5638 5637 5636 5634 5632
5670 5668 5666 5665 5664 5663 5661 5660 5659 5658 5656 5655 5654 5654 5654 5655 5654 5654 5654 5653 5653 5652 5651 5649 5648 5646 5645 5644 5643 5641 5640 5638 5637 5635 5634 5632 5630 5628
5668 5666 5665 5664 5663 5662 5660 5658 5656 5654 5652 5651 5650 5650 5650 5651 5650 5649 5649 5649 5648 5648 5646 5645 5644 5643 5642 5641 5640 5638 5637 5636 5634 5632 5631 5629 5627 5625
5666 5665 5664 5663 5662 5661 5660 5657 5655 5652 5650 5649 5648 5647 5647 5647 5647 5647 5646 5645 5644 5643 5642 5641 5640 5639 5639 5638 5637 5636 5635 5633 5632 5630 5628 5626 5624 5622
5664 5663 5662 5660 5660 5659 5657 5656 5654 5652 5650 5648 5646 5645 5645 5645 5644 5643 5641 5640 5640 5641 5638 5638 5637 5636 5636 5635 5635 5634 5633 5631 5629 5627 5625 5623 5621 5618
5662 5660 5660 5660 5658 5656 5654 5653 5651 5650 5649 5648 5646 5646 5645 5644 5642 5640 5638 5638 5637 5638 5634 5635 5635 5634 5634 5634 5634 5632 5631 5629 5627 5625 5622 5620 5618 5615
5659 5658 5657 5656 5655 5653 5651 5650 5649 5648 5647 5647 5646 5646 5645 5643 5641 5639 5637 5635 5634 5634 5632 5631 5633 5632 5633 5632 5632 5631 5629 5627 5625 5622 5620 5617 5615 5613
5657 5656 5654 5653 5651 5649 5648 5646 5646 5646 5645 5645 5644 5644 5642 5641 5639 5635 5634 5632 5632 5633 5630 5629 5630 5629 5630 5630 5630 5629 5627 5625 5622 5620 5617 5615 5612 5609
5654 5653 5651 5650 5648 5646 5645 5644 5643 5643 5643 5642 5641 5640 5640 5639 5637 5635 5634 5631 5630 5630 5630 5627 5628 5626 5626 5628 5627 5626 5624 5622 5620 5617 5615 5612 5609 5605
5651 5649 5649 5647 5645 5643 5642 5641 5641 5640 5639 5639 5638 5638 5638 5637 5635 5634 5633 5632 5630 5630 5630 5626 5625 5624 5623 5623 5623 5622 5620 5619 5616 5614 5611 5609 5606 5602
5647 5647 5646 5644 5642 5640 5639 5639 5637 5636 5635 5635 5635 5635 5635 5635 5634 5633 5632 5631 5630 5630 5629 5626 5624 5622 5620 5620 5619 5619 5617 5615 5612 5610 5608 5605 5602 5599
5643 5642 5641 5640 5638 5637 5635 5635 5633 5632 5632 5632 5632 5633 5633 5633 5631 5630 5629 5628 5627 5627 5626 5624 5622 5620 5618 5617 5617 5615 5612 5611 5609 5606 5604 5602 5599 5597
5637 5637 5636 5634 5633 5632 5631 5631 5630 5630 5630 5629 5630 5630 5629 5628 5627 5626 5625 5625 5624 5625 5623 5621 5619 5617 5616 5615 5613 5611 5609 5606 5605 5603 5600 5598 5596 5594
5634 5632 5631 5630 5630 5629 5629 5628 5627 5627 5626 5626 5625 5625 5625 5625 5624 5623 5621 5620 5620 5621 5620 5618 5615 5613 5612 5611 5609 5608 5605 5603 5601 5599 5596 5595 5594 5591
5630 5629 5628 5628 5627 5627 5627 5626 5625 5625 5624 5624 5623 5622 5622 5621 5621 5620 5618 5617 5617 5617 5616 5614 5612 5610 5608 5607 5605 5604 5602 5600 5598 5595 5593 5591 5591 5590
5628 5627 5626 5626 5625 5624 5623 5623 5623 5623 5622 5621 5620 5620 5619 5618 5617 5617 5616 5615 5615 5614 5613 5611 5608 5607 5606 5605 5605 5600 5599 5598 5595 5593 5590 5588 5588 5587
5625 5625 5624 5623 5623 5621 5621 5620 5620 5620 5619 5618 5618 5618 5617 5616 5616 5615 5614 5613 5612 5611 5610 5608 5606 5604 5603 5602 5600 5598 5596 5594 5592 5590 5588 5585 5584 5582
5622 5622 5621 5620 5620 5619 5618 5617 5617 5616 5616 5615 5615 5615 5614 5613 5613 5612 5611 5609 5608 5607 5607 5606 5605 5601 5599 5596 5594 5595 5594 5591 5589 5587 5585 5583 5582 5580
5619 5619 5619 5618 5617 5617 5616 5614 5614 5613 5613 5612 5612 5612 5611 5610 5610 5609 5608 5607 5605 5604 5603 5602 5599 5597 5594 5593 5593 5592 5590 5588 5585 5583 5581 5580 5579 5578
5616 5615 5615 5615 5614 5614 5613 5612 5611 5611 5610 5609 5609 5608 5607 5606 5606 5605 5604 5603 5601 5600 5598 5596 5594 5591 5590 5589 5588 5587 5586 5584 5582 5580 5578 5576 5574 5572